Weather History for LSGG - April, 2013

Change the Weather History Date:

Thursday, April 18, 2013

  Actual Average Record
Temperature  
Mean Temperature 66 °F -  
Max Temperature 77 °F 61 °F 77 °F (2013)
Min Temperature 55 °F 42 °F 30 °F (1997)
Cooling Degree Days 1    
Growing Degree Days 16 (Base 50)    
Moisture  
Dew Point 48 °F    
Average Humidity 52    
Maximum Humidity 77    
Minimum Humidity 26    
Precipitation  
Precipitation 0.01 in 0.09 in - ()
Sea Level Pressure  
Sea Level Pressure 30.12 in    
Wind  
Wind Speed 4 mph ()    
Max Wind Speed 12 mph    
Max Gust Speed -    
Visibility 7.0 miles    
Events Rain    
Averages and records for this station are not official NWS values.
T = Trace of Precipitation, MM = Missing Value Source: Averaged Metar Reports

Daily Weather History Graph

Daily Weather History Graph

Search for Another Location

Airport or City:

Trip Planner

Search our weather history database for the weather conditions in past years. The results will help you decide how hot, cold, wet, or windy it might be!

Date:

Astronomy

Apr. 18, 2013 Rise Set
Actual Time 6:43 AM CEST 8:26 PM CEST
Civil Twilight 6:11 AM CEST 8:58 PM CEST
Nautical Twilight 5:33 AM CEST 9:37 PM CEST
Astronomical Twilight 4:51 AM CEST 10:20 PM CEST
Moon 12:35 PM CEST (4/18) 2:37 AM CEST (4/18)
Length of Visible Light 14h 46m
Length of Day
13h 43m
Waxing Crescent, 49% of the Moon is Illuminated
Apr 18
Waxing Crescent
Apr 18
First Quarter
Apr 25
Full
May 2
Last Quarter
May 10
New

Hourly Weather History & Observations

Time (CEST) Temp. Dew Point Humidity Pressure Visibility Wind Dir Wind Speed Gust Speed Precip Events Conditions
12:00 AM 57 °F 47 °F 61% 30.15 in - SW 1.2 mph - -  
12:20 AM 57.2 °F 48.2 °F 72% 30.15 in - Variable 1.2 mph - N/A   Clear
12:50 AM 55.4 °F 48.2 °F 77% 30.15 in - Variable 1.2 mph - N/A   Clear
1:00 AM 56 °F 49 °F 69% 30.16 in - West 3.5 mph - -  
1:20 AM 57.2 °F 48.2 °F 72% 30.15 in - WSW 4.6 mph - N/A   Clear
1:50 AM 64.4 °F 46.4 °F 52% 30.15 in 6.2 mi SSW 6.9 mph - N/A   Partly Cloudy
2:00 AM 63 °F 45 °F 41% 30.13 in 25 mi WSW 5.8 mph - -   Scattered Clouds
2:20 AM 60.8 °F 46.4 °F 59% 30.15 in 6.2 mi WSW 5.8 mph - N/A   Scattered Clouds
2:50 AM 57.2 °F 48.2 °F 72% 30.15 in 6.2 mi WSW 4.6 mph - N/A   Scattered Clouds
3:00 AM 58 °F 47 °F 57% 30.15 in - South 2.3 mph - -  
3:50 AM 59.0 °F 48.2 °F 67% 30.15 in 6.2 mi SW 4.6 mph - N/A   Mostly Cloudy
4:00 AM 56 °F 48 °F 66% 30.16 in - SW 4.6 mph - -  
4:20 AM 55.4 °F 48.2 °F 77% 30.15 in 6.2 mi Variable 3.5 mph - N/A   Partly Cloudy
4:50 AM 57.2 °F 48.2 °F 72% 30.15 in 6.2 mi Calm Calm - N/A   Mostly Cloudy
5:20 AM 57.2 °F 48.2 °F 72% 30.15 in 6.2 mi Variable 1.2 mph - N/A   Mostly Cloudy
5:50 AM 57.2 °F 48.2 °F 72% 30.15 in 6.2 mi Variable 1.2 mph - N/A   Scattered Clouds
6:00 AM 55 °F 48 °F 71% 30.16 in - NE 2.3 mph - -  
6:20 AM 57.2 °F 48.2 °F 72% 30.15 in 6.2 mi Variable 2.3 mph - N/A   Mostly Cloudy
6:50 AM 57.2 °F 48.2 °F 72% 30.15 in 6.2 mi Variable 3.5 mph - N/A   Mostly Cloudy
7:00 AM 57 °F 48 °F 64% 30.16 in - NE 1.2 mph - -  
7:20 AM 57.2 °F 50.0 °F 77% 30.15 in 6.2 mi Calm Calm - N/A   Mostly Cloudy
7:50 AM 57.2 °F 48.2 °F 72% 30.15 in 6.2 mi Variable 1.2 mph - N/A   Mostly Cloudy
8:00 AM 59 °F 48 °F 57% 30.16 in 17 mi SW 2.3 mph - -   Mostly Cloudy
8:20 AM 60.8 °F 48.2 °F 63% 30.15 in 6.2 mi SW 4.6 mph - N/A   Mostly Cloudy
8:50 AM 64.4 °F 48.2 °F 56% 30.18 in 6.2 mi Variable 3.5 mph - N/A   Scattered Clouds
9:00 AM 63 °F 46 °F 43% 30.15 in - SSW 5.8 mph - -  
9:20 AM 66.2 °F 48.2 °F 52% 30.15 in 6.2 mi South 4.6 mph - N/A   Scattered Clouds
9:50 AM 68.0 °F 50.0 °F 52% 30.15 in 6.2 mi Variable 2.3 mph - N/A   Scattered Clouds
10:00 AM 67 °F 48 °F 39% 30.13 in - SW 4.6 mph - -  
10:20 AM 68.0 °F 48.2 °F 49% 30.15 in 6.2 mi Variable 2.3 mph - N/A   Mostly Cloudy
10:50 AM 69.8 °F 48.2 °F 46% 30.15 in 6.2 mi SSW 5.8 mph - N/A   Mostly Cloudy
11:20 AM 71.6 °F 50.0 °F 46% 30.15 in 6.2 mi West 3.5 mph - N/A   Scattered Clouds
11:50 AM 73.4 °F 48.2 °F 41% 30.15 in 6.2 mi SSW 8.1 mph - N/A   Partly Cloudy
12:00 PM 73 °F 46 °F 27% 30.10 in - SW 8.1 mph - -  
12:20 PM 73.4 °F 46.4 °F 38% 30.15 in 6.2 mi SSW 9.2 mph - N/A   Partly Cloudy
12:50 PM 75.2 °F 48.2 °F 38% 30.12 in 6.2 mi SSW 8.1 mph - N/A   Partly Cloudy
1:00 PM 74 °F 48 °F 28% 30.08 in - SW 8.1 mph - -  
1:20 PM 75.2 °F 50.0 °F 41% 30.12 in 6.2 mi SSW 5.8 mph - N/A   Partly Cloudy
1:50 PM 75.2 °F 48.2 °F 38% 30.12 in 6.2 mi SSW 6.9 mph - N/A   Scattered Clouds
2:00 PM 75 °F 48 °F 28% 30.06 in 19 mi SSW 9.2 mph - -   Scattered Clouds
2:20 PM 75.2 °F 48.2 °F 38% 30.12 in 6.2 mi SW 10.4 mph - N/A   Scattered Clouds
2:50 PM 77.0 °F 50.0 °F 39% 30.09 in 6.2 mi SW 10.4 mph - N/A   Scattered Clouds
3:00 PM 76 °F 48 °F 27% 30.04 in - SSW 11.5 mph - -  
3:20 PM 77.0 °F 50.0 °F 39% 30.09 in 6.2 mi SW 9.2 mph - N/A   Scattered Clouds
3:50 PM 77.0 °F 50.0 °F 39% 30.09 in 6.2 mi WSW 8.1 mph - N/A   Scattered Clouds
4:00 PM 76 °F 48 °F 26% 30.02 in - SW 11.5 mph - -  
4:20 PM 77.0 °F 50.0 °F 39% 30.06 in 6.2 mi WSW 9.2 mph - N/A   Scattered Clouds
4:50 PM 77.0 °F 50.0 °F 39% 30.06 in 6.2 mi West 8.1 mph - N/A   Scattered Clouds
5:20 PM 77.0 °F 50.0 °F 39% 30.06 in 6.2 mi WNW 10.4 mph - N/A   Partly Cloudy
5:50 PM 75.2 °F 48.2 °F 38% 30.06 in 6.2 mi NW 5.8 mph - N/A   Partly Cloudy
6:00 PM 73 °F 48 °F 31% 30.02 in - WNW 6.9 mph - -  
6:20 PM 69.8 °F 50.0 °F 49% 30.06 in 6.2 mi North 6.9 mph - N/A   Partly Cloudy
6:50 PM 69.8 °F 50.0 °F 49% 30.06 in 6.2 mi NNW 6.9 mph - N/A   Scattered Clouds
7:00 PM 69 °F 48 °F 36% 30.04 in - NW 5.8 mph - -  
7:20 PM 68.0 °F 48.2 °F 49% 30.06 in 6.2 mi NNW 3.5 mph - N/A   Scattered Clouds
7:50 PM 66.2 °F 48.2 °F 52% 30.09 in 6.2 mi NW 3.5 mph - N/A   Mostly Cloudy
8:00 PM 65 °F 48 °F 43% 30.07 in 19 mi NNE 3.5 mph - -   Scattered Clouds
8:20 PM 66.2 °F 48.2 °F 52% 30.09 in 6.2 mi NNE 4.6 mph - N/A   Mostly Cloudy
8:50 PM 64.4 °F 46.4 °F 52% 30.09 in 6.2 mi North 4.6 mph - N/A   Mostly Cloudy
9:00 PM 64 °F 44 °F 38% 30.10 in - North 3.5 mph - -  
9:20 PM 64.4 °F 42.8 °F 45% 30.12 in 6.2 mi Variable 3.5 mph - N/A   Mostly Cloudy
9:50 PM 62.6 °F 42.8 °F 48% 30.12 in 6.2 mi Variable 1.2 mph - N/A   Mostly Cloudy
10:00 PM 63 °F 43 °F 37% 30.12 in - NW 3.5 mph - -  
10:20 PM 62.6 °F 46.4 °F 55% 30.15 in 6.2 mi Variable 1.2 mph - N/A Rain Light Rain Showers
10:50 PM 59.0 °F 50.0 °F 72% 30.15 in 6.2 mi Variable 1.2 mph - N/A   Mostly Cloudy
11:20 PM 60.8 °F 46.4 °F 59% 30.15 in 6.2 mi Variable 2.3 mph - N/A   Mostly Cloudy
11:50 PM 59.0 °F 46.4 °F 63% 30.15 in 6.2 mi Variable 1.2 mph - N/A   Overcast